User: anonymous   Login
Location: Unspecified
(0.0000°N, 0.0000°E)
Time: 12:42:17
(UTC+00:00)
Language:

SKCUBE - Orbit

View from above orbital plane
View from above orbital plane
View from above satellite
View from above satellite

Ground track
Ground track

The orbit data is extracted from the following two-line orbital elements,

1 42789U 17036AA  18347.80552002 +.00001080 +00000-0 +49778-4 0  9990
2 42789 097.3791 044.6090 0012247 159.1302 201.0437 15.22340906081837
Epoch (UTC): 13 December 2018 19:19:56
Eccentricity: 0.0012247
inclination: 97.3791°
perigee height: 490 km
apogee height: 507 km
right ascension of ascending node: 44.6090°
argument of perigee: 159.1302°
revolutions per day: 15.22340906
mean anomaly at epoch: 201.0437°
orbit number at epoch: 8183

The dashed part of the orbit path shows where the satellite is in the earth's shadow,  

DLR